{"data":{"norad_id":53023,"epoch":"2026-09-19T18:33:25.936704Z","epoch_age_seconds":132234,"freshness":"FRESH","line1":"1 53023U 22076AP  26262.77321686 -.00083057  00000+0 -24450-2 0  9999","line2":"2 53023  53.1592 284.7779 0000859 116.3513 243.7578 15.34772961232396","mean_motion":15.34772961,"eccentricity":8.59e-5,"inclination_deg":53.1592,"raan_deg":284.7779,"arg_perigee_deg":116.3513,"mean_anomaly_deg":243.7578,"bstar":-0.002445,"rev_number":23239,"period_min":93.824952393073,"perigee_km":461.0074130308,"apogee_km":462.18247897912,"semimajor_km":6839.731946005,"source":"CELESTRAK","updated_at":"2026-09-20T09:00:40.146395Z"}}